| time (UTC) | temp F | wind direction | speed MPH | gust MPH | rain 1hr in | rain 24hr in | rain mn in | humidity % | barometer mb |
| 20260505073049 | 56 | 194 | 3.0 | 11.0 | 0.00 | 0.00 | 0.00 | 81 | 1012.2 |
| 20260505071555 | 57 | 213 | 1.0 | 7.0 | 0.00 | 0.00 | 0.00 | 80 | 1012.0 |
| 20260505070057 | 57 | 171 | 2.0 | 6.0 | 0.00 | 0.00 | 0.00 | 79 | 1011.9 |
| 20260505064550 | 58 | 207 | 2.0 | 7.0 | 0.00 | 0.00 | 0.00 | 78 | 1011.8 |
| 20260505063050 | 58 | 178 | 3.0 | 8.0 | 0.00 | 0.00 | 0.00 | 77 | 1011.6 |
| 20260505061546 | 59 | 208 | 2.0 | 7.0 | 0.00 | 0.00 | 0.00 | 76 | 1011.4 |
| 20260505060054 | 59 | 186 | 6.0 | 11.0 | 0.00 | 0.00 | 0.00 | 74 | 1011.3 |
| 20260505054552 | 61 | 196 | 5.0 | 12.0 | 0.00 | 0.00 | 0.00 | 72 | 1011.1 |
| 20260505053051 | 62 | 161 | 2.0 | 6.0 | 0.00 | 0.00 | 0.00 | 71 | 1011.0 |
| 20260505051549 | 62 | 204 | 3.0 | 8.0 | 0.00 | 0.00 | 0.00 | 70 | 1010.6 |
| 20260505041554 | 66 | 273 | 0.0 | 3.0 | 0.00 | 0.00 | 0.00 | 65 | 1010.3 |
| 20260505040056 | 67 | 275 | 1.0 | 4.0 | 0.00 | 0.00 | 0.00 | 63 | 1010.0 |
| 20260505034548 | 68 | 206 | 0.0 | 4.0 | 0.00 | 0.00 | 0.00 | 60 | 1009.7 |
| 20260505033047 | 69 | 226 | 2.0 | 8.0 | 0.00 | 0.00 | 0.00 | 58 | 1009.5 |
| 20260505031550 | 70 | 293 | 2.0 | 6.0 | 0.00 | 0.00 | 0.00 | 56 | 1009.4 |
| 20260505030045 | 71 | 270 | 3.0 | 6.0 | 0.00 | 0.00 | 0.00 | 54 | 1009.3 |
| 20260505024553 | 72 | 306 | 2.0 | 4.0 | 0.00 | 0.00 | 0.00 | 53 | 1009.1 |
| 20260505023054 | 74 | 167 | 1.0 | 8.0 | 0.00 | 0.00 | 0.00 | 51 | 1009.1 |
| 20260505021547 | 74 | 217 | 1.0 | 7.0 | 0.00 | 0.00 | 0.00 | 50 | 1009.0 |
| 20260505020054 | 75 | 291 | 0.0 | 3.0 | 0.00 | 0.00 | 0.00 | 49 | 1009.0 |
| 20260505014551 | 76 | 0 | 1.0 | 4.0 | 0.00 | 0.00 | 0.00 | 47 | 1009.0 |
| 20260505013043 | 76 | 132 | 1.0 | 4.0 | 0.00 | 0.00 | 0.00 | 44 | 1009.0 |
| 20260505011552 | 77 | 0 | 1.0 | 7.0 | 0.00 | 0.00 | 0.00 | 42 | 1009.1 |
| 20260505010109 | 77 | 188 | 1.0 | 7.0 | 0.00 | 0.00 | 0.00 | 41 | 1009.1 |
| 20260505004548 | 77 | 211 | 1.0 | 6.0 | 0.00 | 0.00 | 0.00 | 40 | 1009.1 |
| 20260505003048 | 78 | 180 | 2.0 | 6.0 | 0.00 | 0.00 | 0.00 | 40 | 1009.2 |
| 20260505001546 | 78 | 190 | 2.0 | 7.0 | 0.00 | 0.00 | 0.00 | 39 | 1009.3 |
| 20260505000048 | 79 | 283 | 2.0 | 6.0 | 0.00 | 0.00 | 0.00 | 38 | 1009.2 |
| 20260504234551 | 79 | 150 | 2.0 | 6.0 | 0.00 | 0.00 | 0.00 | 38 | 1009.3 |
| 20260504233048 | 79 | 219 | 3.0 | 9.0 | 0.00 | 0.00 | 0.00 | 36 | 1009.3 |
| 20260504231548 | 79 | 101 | 2.0 | 10.0 | 0.00 | 0.00 | 0.00 | 36 | 1009.4 |
| 20260504230053 | 79 | 175 | 2.0 | 8.0 | 0.00 | 0.00 | 0.00 | 36 | 1009.4 |
| 20260504224544 | 78 | 157 | 1.0 | 8.0 | 0.00 | 0.00 | 0.00 | 33 | 1009.6 |
| 20260504223057 | 78 | 236 | 3.0 | 7.0 | 0.00 | 0.00 | 0.00 | 34 | 1009.8 |
| 20260504221602 | 79 | 180 | 4.0 | 10.0 | 0.00 | 0.00 | 0.00 | 31 | 1010.0 |
| 20260504220051 | 78 | 265 | 3.0 | 8.0 | 0.00 | 0.00 | 0.00 | 35 | 1010.2 |
| 20260504214600 | 78 | 196 | 2.0 | 9.0 | 0.00 | 0.00 | 0.00 | 34 | 1010.2 |
| 20260504213103 | 78 | 217 | 4.0 | 11.0 | 0.00 | 0.00 | 0.00 | 36 | 1010.2 |
| 20260504211551 | 77 | 243 | 1.0 | 9.0 | 0.00 | 0.00 | 0.00 | 38 | 1010.3 |
| 20260504210051 | 78 | 270 | 2.0 | 9.0 | 0.00 | 0.00 | 0.00 | 36 | 1010.3 |
| 20260504204550 | 78 | 173 | 5.0 | 11.0 | 0.00 | 0.00 | 0.00 | 37 | 1010.3 |
| 20260504203052 | 78 | 245 | 2.0 | 7.0 | 0.00 | 0.00 | 0.00 | 38 | 1010.2 |
| 20260504201547 | 77 | 226 | 1.0 | 8.0 | 0.00 | 0.00 | 0.00 | 44 | 1010.3 |
| 20260504200052 | 75 | 213 | 3.0 | 8.0 | 0.00 | 0.00 | 0.00 | 44 | 1010.2 |
| 20260504194554 | 76 | 279 | 2.0 | 8.0 | 0.00 | 0.00 | 0.00 | 44 | 1010.2 |
| 20260504193050 | 76 | 22 | 1.0 | 7.0 | 0.00 | 0.00 | 0.00 | 37 | 1010.3 |
| 20260504191550 | 76 | 269 | 3.0 | 7.0 | 0.00 | 0.00 | 0.00 | 39 | 1010.6 |
| 20260504190050 | 75 | 228 | 1.0 | 7.0 | 0.00 | 0.00 | 0.00 | 41 | 1010.8 |
| 20260504184550 | 74 | 173 | 3.0 | 8.0 | 0.00 | 0.00 | 0.00 | 42 | 1010.8 |
| 20260504183053 | 73 | 136 | 1.0 | 7.0 | 0.00 | 0.00 | 0.00 | 43 | 1010.9 |
| 20260504181552 | 74 | 144 | 1.0 | 6.0 | 0.00 | 0.00 | 0.00 | 43 | 1010.8 |
| 20260504180052 | 73 | 263 | 1.0 | 7.0 | 0.00 | 0.00 | 0.00 | 46 | 1010.8 |
| 20260504174550 | 71 | 161 | 2.0 | 5.0 | 0.00 | 0.00 | 0.00 | 47 | 1010.9 |
| 20260504173052 | 72 | 0 | 1.0 | 4.0 | 0.00 | 0.00 | 0.00 | 50 | 1010.9 |
| 20260504171558 | 70 | 147 | 2.0 | 5.0 | 0.00 | 0.00 | 0.00 | 53 | 1010.9 |
| 20260504081558 | 59 | 0 | 0.0 | 0.0 | 0.00 | 0.00 | 0.00 | 64 | 1009.1 |